Date String (YYYY-MM-DD hh:mm:ss) UTC,Instrument flags,Ambient pressure (hPa),Sample flow (lpm),Bypass flow (lpm),Sample temperature (°C),Ambient temperature (°C),ASC tube jacket temperature (°C),LED temperature (°C),Box temperature (°C),Sample RH (%),Span deviation,Mass concentration (μg/m³),Mass concentration (μg/m³),Mass concentration (μg/m³)
DateTimeUTC,F1_M11,P_M11,Q1_M11,Q2_M11,T1_M11,T2_M11,T3_M11,T4_M11,T5_M11,U1_M11,ZSPAN_M11,X0_M11,X2_M11,X1_M11
2021-08-23 10:00:00,,0827.2,5.00,0.00,29.2,28.6,00.0,38.3,30.9,21.5,0002.8,0025.66,0019.52,0018.44
2021-08-23 10:01:00,,0827.0,4.99,0.00,29.2,28.6,00.0,38.3,30.9,21.5,0002.6,0025.23,0019.39,0018.38
2021-08-23 10:02:00,,0827.0,5.01,0.00,29.2,28.6,00.0,38.3,31.0,21.5,0002.3,0025.24,0019.37,0018.35
2021-08-23 10:03:00,,0827.0,5.01,0.00,29.2,28.6,00.0,38.3,31.0,21.4,0002.0,0025.34,0019.42,0018.35
2021-08-23 10:04:00,,0826.9,5.00,0.00,29.2,28.6,00.0,38.4,31.0,21.4,0001.9,0025.45,0019.38,0018.28
2021-08-23 10:05:00,,0827.2,4.99,0.00,29.2,28.6,00.0,38.4,31.0,21.4,0002.0,0025.88,0019.37,0018.22
2021-08-23 10:06:00,,0827.2,5.00,0.00,29.2,28.6,00.0,38.4,31.0,21.5,0002.2,0026.34,0019.36,0018.22
2021-08-23 10:07:00,,0827.1,4.99,0.00,29.2,28.6,00.0,38.4,31.0,21.6,0002.6,0026.66,0019.34,0018.24
2021-08-23 10:08:00,,0827.2,4.99,0.00,29.2,28.6,00.0,38.4,31.0,21.6,0002.8,0026.36,0019.35,0018.24
2021-08-23 10:09:00,,0827.1,5.00,0.00,29.2,28.6,00.0,38.4,31.0,21.6,0002.7,0026.57,0019.32,0018.23
2021-08-23 10:10:00,,0827.0,4.99,0.00,29.2,28.6,00.0,38.4,31.0,21.5,0002.7,0026.59,0019.29,0018.22
2021-08-23 10:11:00,,0827.0,5.00,0.00,29.2,28.5,00.0,38.4,31.0,21.5,0002.7,0026.83,0019.36,0018.23
2021-08-23 10:12:00,,0827.2,5.01,0.00,29.2,28.6,00.0,38.4,31.0,21.5,0002.9,0027.51,0019.48,0018.28
2021-08-23 10:13:00,,0827.0,5.01,0.00,29.2,28.5,00.0,38.4,31.0,21.5,0003.1,0028.97,0019.47,0018.28
2021-08-23 10:14:00,,0826.9,5.00,0.00,29.2,28.5,00.0,38.4,30.9,21.5,0003.2,0029.51,0019.42,0018.28
2021-08-23 10:15:00,,0827.1,4.99,0.00,29.2,28.5,00.0,38.4,30.9,21.5,0003.2,0030.79,0019.51,0018.34
2021-08-23 10:16:00,,0827.0,4.99,0.00,29.1,28.5,00.0,38.3,30.9,21.5,0003.4,0031.89,0019.54,0018.38
2021-08-23 10:17:00,,0826.9,5.01,0.00,29.1,28.5,00.0,38.3,30.9,21.5,0003.3,0032.24,0019.56,0018.40
2021-08-23 10:18:00,,0827.1,5.00,0.00,29.1,28.5,00.0,38.3,30.9,21.6,0003.1,0032.09,0019.64,0018.41
2021-08-23 10:19:00,,0827.0,5.01,0.00,29.1,28.5,00.0,38.3,30.8,21.6,0002.9,0032.03,0019.67,0018.42
2021-08-23 10:20:00,,0827.2,4.98,0.00,29.1,28.5,00.0,38.3,30.8,21.5,0003.0,0032.13,0019.68,0018.40
2021-08-23 10:21:00,,0827.2,5.01,0.00,29.1,28.5,00.0,38.3,30.8,21.5,0003.0,0031.89,0019.60,0018.36
2021-08-23 10:22:00,,0827.2,5.00,0.00,29.1,28.5,00.0,38.3,30.8,21.5,0002.9,0031.65,0019.51,0018.31
2021-08-23 10:23:00,,0827.0,5.00,0.00,29.1,28.5,00.0,38.3,30.9,21.5,0002.9,0031.09,0019.40,0018.24
2021-08-23 10:24:00,,0826.8,5.00,0.00,29.1,28.5,00.0,38.3,30.8,21.5,0002.9,0029.82,0019.38,0018.21
2021-08-23 10:25:00,,0827.0,5.00,0.00,29.1,28.5,00.0,38.3,30.8,21.5,0002.8,0029.76,0019.33,0018.16
2021-08-23 10:26:00,,0827.0,5.00,0.00,29.1,28.5,00.0,38.3,30.9,21.6,0002.7,0028.95,0019.27,0018.10
2021-08-23 10:27:00,,0826.9,5.00,0.00,29.1,28.5,00.0,38.3,30.9,21.6,0002.7,0027.61,0019.23,0018.08
2021-08-23 10:28:00,,0827.0,5.00,0.00,29.1,28.5,00.0,38.3,30.9,21.6,0002.6,0027.22,0019.23,0018.04
2021-08-23 10:29:00,,0827.0,5.01,0.00,29.1,28.5,00.0,38.3,30.9,21.6,0002.4,0026.77,0019.14,0018.02
2021-08-23 10:30:00,,0827.0,5.00,0.00,29.1,28.5,00.0,38.3,30.8,21.6,0002.6,0026.45,0019.05,0018.00
2021-08-23 10:31:00,,0826.8,4.99,0.00,29.1,28.5,00.0,38.3,30.8,21.6,0002.5,0026.04,0019.01,0017.97
2021-08-23 10:32:00,,0826.8,4.99,0.00,29.1,28.5,00.0,38.3,30.8,21.5,0002.6,0026.05,0019.05,0017.95
2021-08-23 10:33:00,,0826.8,4.97,0.00,29.1,28.5,00.0,38.3,30.9,21.5,0002.6,0026.02,0019.09,0017.95
2021-08-23 10:34:00,,0826.9,4.99,0.00,29.1,28.5,00.0,38.3,30.9,21.6,0002.6,0026.09,0019.10,0017.97
2021-08-23 10:35:00,,0826.8,5.00,0.00,29.1,28.5,00.0,38.3,30.9,21.6,0002.5,0026.04,0019.11,0017.97
2021-08-23 10:36:00,,0826.8,5.00,0.00,29.1,28.5,00.0,38.3,30.9,21.8,0002.7,0025.39,0019.14,0017.97
2021-08-23 10:37:00,,0826.9,5.00,0.00,29.1,28.5,00.0,38.3,30.9,21.5,0002.7,0025.15,0019.14,0017.97
2021-08-23 10:38:00,,0827.0,5.00,0.00,29.1,28.5,00.0,38.3,30.9,21.5,0002.8,0024.75,0019.12,0017.95
2021-08-23 10:39:00,,0826.9,5.01,0.00,29.1,28.5,00.0,38.3,30.9,21.5,0002.8,0024.40,0019.09,0017.90
2021-08-23 10:40:00,,0827.0,5.00,0.00,29.1,28.5,00.0,38.3,30.9,21.5,0003.0,0024.48,0019.02,0017.85
2021-08-23 10:41:00,,0826.8,5.00,0.00,29.1,28.5,00.0,38.3,30.8,21.7,0003.0,0024.63,0019.04,0017.83
2021-08-23 10:42:00,,0826.9,4.99,0.00,29.1,28.5,00.0,38.3,30.8,21.5,0003.0,0024.72,0018.99,0017.84
2021-08-23 10:43:00,,0826.8,5.01,0.00,29.1,28.5,00.0,38.3,30.9,21.6,0002.8,0025.64,0018.97,0017.83
2021-08-23 10:44:00,,0827.3,5.00,0.00,29.1,28.5,00.0,38.3,30.8,21.5,0002.7,0026.11,0018.92,0017.80
2021-08-23 10:45:00,,0827.0,4.99,0.00,29.1,28.5,00.0,38.3,30.8,21.5,0002.7,0026.01,0018.90,0017.75
2021-08-23 10:46:00,,0827.1,5.00,0.00,29.1,28.5,00.0,38.2,30.8,21.5,0002.6,0025.96,0018.83,0017.65
2021-08-23 10:47:00,,0827.1,5.00,0.00,29.1,28.5,00.0,38.3,30.8,21.4,0002.4,0025.82,0018.73,0017.56
2021-08-23 10:48:00,,0827.0,4.99,0.00,29.1,28.5,00.0,38.2,30.8,21.4,0002.5,0025.97,0018.60,0017.47
2021-08-23 10:49:00,,0826.9,5.01,0.00,29.1,28.5,00.0,38.2,30.8,21.5,0002.4,0026.33,0018.48,0017.37
2021-08-23 10:50:00,,0826.8,5.00,0.00,29.1,28.4,00.0,38.2,30.8,21.4,0002.3,0026.10,0018.36,0017.29
2021-08-23 10:51:00,,0826.8,5.00,0.00,29.0,28.4,00.0,38.2,30.8,21.4,0002.1,0026.17,0018.31,0017.23
2021-08-23 10:52:00,,0826.7,5.01,0.00,29.1,28.4,00.0,38.2,30.8,21.4,0002.2,0026.05,0018.24,0017.15
2021-08-23 10:53:00,,0826.8,5.00,0.00,29.1,28.5,00.0,38.2,30.8,21.3,0002.3,0025.81,0018.17,0017.05
2021-08-23 10:54:00,,0826.7,5.01,0.00,29.0,28.5,00.0,38.2,30.8,21.3,0002.3,0025.25,0018.10,0016.98
2021-08-23 10:55:00,,0826.7,4.98,0.00,29.1,28.5,00.0,38.2,30.8,21.2,0002.4,0024.49,0018.05,0016.93
2021-08-23 10:56:00,,0826.7,5.00,0.00,29.1,28.5,00.0,38.2,30.8,21.3,0002.5,0024.37,0017.99,0016.93
2021-08-23 10:57:00,,0826.8,5.01,0.00,29.1,28.5,00.0,38.2,30.8,21.4,0002.6,0024.44,0017.99,0016.98
2021-08-23 10:58:00,,0826.8,5.00,0.00,29.1,28.5,00.0,38.2,30.8,21.6,0002.8,0024.40,0018.00,0016.99
2021-08-23 10:59:00,,0826.8,4.99,0.00,29.1,28.5,00.0,38.2,30.8,21.5,0002.6,0024.06,0018.00,0017.02
